Regional Weather Roundup
Issued by NWS

Home | Current Version | Previous Version | Graphics & Text | Print | Product List | Glossary On
Versions: 1 2 3 4 5 6 7 8 9 10 11 12 13 14 15 16 17 18 19 20 21 22 23 24 25 26 27 28 29 30 31 32 33 34 35 36 37 38 39 40 41 42 43 44 45 46 47 48 49 50
726
ASUS43 KFSD 112102
RWRSD

WEATHER ROUNDUP FOR SOUTH DAKOTA
NATIONAL WEATHER SERVICE SIOUX FALLS SD
300 PM CST THU FEB 11 2016

NOTE: "FAIR" INDICATES FEW OR NO CLOUDS BELOW 12,000 FEET WITH NO
SIGNIFICANT WEATHER AND/OR OBSTRUCTIONS TO VISIBILITY.


SDZ001>005-009-010-012>017-112200-
NORTHWEST AND NORTH CENTRAL SOUTH DAKOTA

CITY           SKY/WX    TMP DP  RH WIND       PRES   REMARKS
BUFFALO          N/A     38  30  73 NW24      29.98R
FAITH            N/A     33  28  81 CALM      30.02R
MOBRIDGE       LGT SNOW  28  25  88 CALM      30.06S VSB 1
$$

SDZ012>016-024>037-041>051-057-063-072>074-112200-
SOUTHWEST AND SOUTH CENTRAL SOUTH DAKOTA

CITY           SKY/WX    TMP DP  RH WIND       PRES   REMARKS
RAPID CTY ARPT SUNNY     58  27  30 NW35G52   29.99S
PIERRE         LGT SNOW  29  25  85 E6        30.06S FOG     WCI  23
CUSTER         MOSUNNY   47  20  34 NW26G54   30.04R
ELLSWORTH AFB  SUNNY     56  29  35 NW35G47   29.98S
PHILIP         CLOUDY    44  32  62 NE5       30.00S
PINE RIDGE     CLOUDY    58  28  32 NW12G23   30.01F
WINNER         CLOUDY    38  28  67 NE10      30.01S
$$

SDZ004>011-016>023-039-040-112200-
NORTHEAST SOUTH DAKOTA

CITY           SKY/WX    TMP DP  RH WIND       PRES   REMARKS
ABERDEEN       LGT SNOW  23  18  81 NE3       30.15F
WATERTOWN      LGT SNOW  19  13  77 SW7       30.11S WCI  10
BROOKINGS      LGT SNOW  17  12  80 S8        30.12F WCI   7
SISSETON         N/A     17  12  80 S7        30.16F WCI   8
$$

SDZ017-020-022-023-036>040-048>070-112200-
SOUTHEAST SOUTH DAKOTA

CITY           SKY/WX    TMP DP  RH WIND       PRES   REMARKS
SIOUX FALLS    LGT SNOW  18  13  80 S12       30.14F VSB 3/4 WCI   5
HURON          LGT SNOW  23  19  85 SE7       30.12F FOG     WCI  15
CHAMBERLAIN    FLURRIES  27  24  87 E8        30.06F WCI  19
MITCHELL       LGT SNOW  22  19  89 SE10      30.12F FOG     WCI  11
YANKTON        CLOUDY    21  18  86 SE12      30.13F WCI   9
$$

ABBREVIATIONS USED IN REMARKS
   TC - TEMPERATURE IN CELSIUS
  WCI - WIND CHILL INDEX
   HX - HEAT INDEX
  VSB - VISIBILITY





USA.gov is the U.S. government's official web portal to all federal, state and local government web resources and services.